| time (UTC) | temp C | wind direction | speed KPH | gust KPH | rain 1hr cm | rain 24hr cm | rain mn cm | humidity % | barometer mb |
| 20260503194238 | 18 | 250 | 11.3 | 14.5 | 0.00 | 0.00 | 0.00 | 36 | 1009.5 |
| 20260503193735 | 18 | 268 | 11.3 | 16.1 | 0.00 | 0.00 | 0.00 | 37 | 1009.5 |
| 20260503193231 | 17 | 263 | 8.0 | 11.3 | 0.00 | 0.00 | 0.00 | 38 | 1009.7 |
| 20260503192727 | 17 | 209 | 11.3 | 14.5 | 0.00 | 0.00 | 0.00 | 37 | 1009.9 |
| 20260503192222 | 17 | 249 | 9.7 | 11.3 | 0.00 | 0.00 | 0.00 | 37 | 1009.6 |
| 20260503191719 | 18 | 317 | 3.2 | 4.8 | 0.00 | 0.00 | 0.00 | 37 | 1009.9 |
| 20260503191216 | 17 | 174 | 6.4 | 14.5 | 0.00 | 0.00 | 0.00 | 36 | 1010.3 |
| 20260503190713 | 17 | 258 | 17.7 | 20.9 | 0.00 | 0.00 | 0.00 | 36 | 1009.9 |
| 20260503190210 | 17 | 258 | 8.0 | 9.7 | 0.00 | 0.00 | 0.00 | 37 | 1009.9 |
| 20260503185707 | 17 | 233 | 8.0 | 9.7 | 0.00 | 0.00 | 0.00 | 37 | 1009.9 |
| 20260503185202 | 18 | 226 | 16.1 | 17.7 | 0.00 | 0.00 | 0.00 | 36 | 1010.2 |
| 20260503184657 | 17 | 211 | 6.4 | 9.7 | 0.00 | 0.00 | 0.00 | 37 | 1010.1 |
| 20260503184154 | 17 | 262 | 8.0 | 11.3 | 0.00 | 0.00 | 0.00 | 37 | 1010.4 |
| 20260503183650 | 17 | 292 | 16.1 | 24.1 | 0.00 | 0.00 | 0.00 | 37 | 1010.4 |
| 20260503183148 | 17 | 274 | 6.4 | 9.7 | 0.00 | 0.00 | 0.00 | 39 | 1010.4 |
| 20260503182645 | 17 | 206 | 9.7 | 12.9 | 0.00 | 0.00 | 0.00 | 38 | 1010.5 |
| 20260503182144 | 16 | 272 | 3.2 | 4.8 | 0.00 | 0.00 | 0.00 | 39 | 1010.9 |
| 20260503181640 | 16 | 190 | 9.7 | 11.3 | 0.00 | 0.00 | 0.00 | 39 | 1010.7 |
| 20260503181137 | 16 | 213 | 9.7 | 12.9 | 0.00 | 0.00 | 0.00 | 40 | 1010.7 |
| 20260503180634 | 16 | 223 | 16.1 | 22.5 | 0.00 | 0.00 | 0.00 | 38 | 1011.2 |
| 20260503180132 | 16 | 264 | 14.5 | 16.1 | 0.00 | 0.00 | 0.00 | 38 | 1011.1 |
| 20260503175629 | 16 | 193 | 16.1 | 24.1 | 0.00 | 0.00 | 0.00 | 39 | 1011.2 |
| 20260503175126 | 17 | 302 | 6.4 | 11.3 | 0.00 | 0.00 | 0.00 | 39 | 1011.1 |
| 20260503174622 | 16 | 297 | 4.8 | 8.0 | 0.00 | 0.00 | 0.00 | 40 | 1011.3 |
| 20260503174120 | 16 | 211 | 4.8 | 8.0 | 0.00 | 0.00 | 0.00 | 41 | 1011.2 |
| 20260503173614 | 15 | 273 | 12.9 | 16.1 | 0.00 | 0.00 | 0.00 | 41 | 1011.5 |
| 20260503173111 | 15 | 226 | 8.0 | 16.1 | 0.00 | 0.00 | 0.00 | 41 | 1011.6 |
| 20260503172608 | 15 | 202 | 14.5 | 16.1 | 0.00 | 0.00 | 0.00 | 40 | 1011.5 |
| 20260503172106 | 16 | 246 | 12.9 | 16.1 | 0.00 | 0.00 | 0.00 | 40 | 1011.7 |
| 20260503171602 | 16 | 219 | 11.3 | 12.9 | 0.00 | 0.00 | 0.00 | 40 | 1011.8 |
| 20260503171059 | 16 | 266 | 12.9 | 16.1 | 0.00 | 0.00 | 0.00 | 41 | 1012.0 |
| 20260503170555 | 15 | 260 | 9.7 | 11.3 | 0.00 | 0.00 | 0.00 | 40 | 1012.2 |
| 20260503150948 | 15 | 287 | 4.8 | 8.0 | 0.00 | 0.00 | 0.00 | 41 | 1012.9 |
| 20260503150445 | 15 | 274 | 8.0 | 12.9 | 0.00 | 0.00 | 0.00 | 40 | 1013.2 |
| 20260503131337 | 9 | 265 | 9.7 | 11.3 | 0.00 | 0.00 | 0.00 | 53 | 1013.5 |
| 20260503130835 | 8 | 226 | 6.4 | 8.0 | 0.00 | 0.00 | 0.00 | 54 | 1013.6 |
| 20260503130333 | 8 | 244 | 4.8 | 8.0 | 0.00 | 0.00 | 0.00 | 54 | 1013.6 |
| 20260503110726 | 2 | 257 | 4.8 | 4.8 | 0.00 | 0.00 | 0.00 | 68 | 1013.8 |
| 20260503110224 | 2 | 230 | 1.6 | 1.6 | 0.00 | 0.00 | 0.00 | 70 | 1014.0 |
| 20260503100149 | 1 | 256 | 1.6 | 1.6 | 0.00 | 0.00 | 0.00 | 73 | 1014.4 |
| 20260503090109 | 1 | 278 | 0.0 | 0.0 | 0.00 | 0.00 | 0.00 | 75 | 1014.4 |
| 20260503081544 | 1 | 277 | 0.0 | 0.0 | 0.00 | 0.00 | 0.00 | 75 | 1014.8 |
| 20260503081042 | 1 | 277 | 0.0 | 0.0 | 0.00 | 0.00 | 0.00 | 75 | 1014.7 |
| 20260503080537 | 1 | 277 | 0.0 | 0.0 | 0.00 | 0.00 | 0.00 | 75 | 1014.8 |
| 20260503072512 | 1 | 273 | 0.0 | 0.0 | 0.00 | 0.00 | 0.00 | 73 | 1014.8 |
| 20260503072009 | 1 | 273 | 0.0 | 0.0 | 0.00 | 0.00 | 0.00 | 73 | 1014.9 |
| 20260503071506 | 1 | 273 | 0.0 | 0.0 | 0.00 | 0.00 | 0.00 | 73 | 1014.8 |
| 20260503071002 | 1 | 275 | 0.0 | 0.0 | 0.00 | 0.00 | 0.00 | 73 | 1014.9 |
| 20260503070459 | 2 | 275 | 0.0 | 0.0 | 0.00 | 0.00 | 0.00 | 73 | 1014.9 |
| 20260503054917 | 2 | 277 | 0.0 | 0.0 | 0.00 | 0.00 | 0.00 | 74 | 1015.3 |
| 20260503054413 | 2 | 279 | 0.0 | 0.0 | 0.00 | 0.00 | 0.00 | 73 | 1015.5 |
| 20260503053911 | 2 | 279 | 0.0 | 0.0 | 0.00 | 0.00 | 0.00 | 73 | 1015.4 |
| 20260503053409 | 2 | 277 | 0.0 | 0.0 | 0.00 | 0.00 | 0.00 | 72 | 1015.5 |
| 20260503052905 | 2 | 277 | 0.0 | 0.0 | 0.00 | 0.00 | 0.00 | 72 | 1015.5 |
| 20260503052402 | 2 | 276 | 0.0 | 0.0 | 0.00 | 0.00 | 0.00 | 71 | 1015.4 |
| 20260503051858 | 3 | 275 | 0.0 | 0.0 | 0.00 | 0.00 | 0.00 | 71 | 1015.7 |
| 20260503051354 | 3 | 267 | 0.0 | 1.6 | 0.00 | 0.00 | 0.00 | 71 | 1015.5 |
| 20260503050852 | 3 | 280 | 0.0 | 0.0 | 0.00 | 0.00 | 0.00 | 70 | 1015.6 |
| 20260503050348 | 3 | 270 | 0.0 | 0.0 | 0.00 | 0.00 | 0.00 | 70 | 1015.6 |
| 20260503045845 | 3 | 264 | 0.0 | 1.6 | 0.00 | 0.00 | 0.00 | 70 | 1015.7 |
| 20260503045343 | 3 | 269 | 0.0 | 0.0 | 0.00 | 0.00 | 0.00 | 69 | 1015.7 |
| 20260503044839 | 3 | 272 | 0.0 | 0.0 | 0.00 | 0.00 | 0.00 | 68 | 1015.5 |
| 20260503044336 | 3 | 270 | 0.0 | 0.0 | 0.00 | 0.00 | 0.00 | 68 | 1015.6 |
| 20260503043833 | 3 | 259 | 1.6 | 1.6 | 0.00 | 0.00 | 0.00 | 67 | 1015.7 |
| 20260503043330 | 3 | 268 | 0.0 | 0.0 | 0.00 | 0.00 | 0.00 | 67 | 1015.5 |
| 20260503042826 | 3 | 268 | 0.0 | 0.0 | 0.00 | 0.00 | 0.00 | 67 | 1015.5 |
| 20260503042323 | 3 | 265 | 0.0 | 0.0 | 0.00 | 0.00 | 0.00 | 67 | 1015.5 |
| 20260503041819 | 3 | 269 | 0.0 | 0.0 | 0.00 | 0.00 | 0.00 | 67 | 1015.7 |
| 20260503041317 | 3 | 269 | 0.0 | 0.0 | 0.00 | 0.00 | 0.00 | 67 | 1015.9 |
| 20260503040814 | 3 | 270 | 0.0 | 0.0 | 0.00 | 0.00 | 0.00 | 67 | 1015.8 |
| 20260503040312 | 3 | 265 | 0.0 | 1.6 | 0.00 | 0.00 | 0.00 | 68 | 1015.8 |
| 20260503035808 | 3 | 270 | 0.0 | 0.0 | 0.00 | 0.00 | 0.00 | 67 | 1015.9 |
| 20260503035306 | 3 | 270 | 0.0 | 0.0 | 0.00 | 0.00 | 0.00 | 67 | 1015.8 |
| 20260503034803 | 3 | 271 | 0.0 | 0.0 | 0.00 | 0.00 | 0.00 | 67 | 1015.8 |
| 20260503034300 | 3 | 271 | 0.0 | 0.0 | 0.00 | 0.00 | 0.00 | 67 | 1015.8 |
| 20260503033757 | 3 | 270 | 0.0 | 0.0 | 0.00 | 0.00 | 0.00 | 67 | 1015.9 |
| 20260503033255 | 3 | 270 | 0.0 | 0.0 | 0.00 | 0.00 | 0.00 | 67 | 1015.8 |
| 20260503032753 | 3 | 269 | 0.0 | 0.0 | 0.00 | 0.00 | 0.00 | 67 | 1015.7 |
| 20260503032251 | 3 | 274 | 1.6 | 1.6 | 0.00 | 0.00 | 0.00 | 69 | 1015.8 |
| 20260503031748 | 2 | 280 | 0.0 | 0.0 | 0.00 | 0.00 | 0.00 | 69 | 1015.9 |
| 20260503031246 | 3 | 280 | 0.0 | 0.0 | 0.00 | 0.00 | 0.00 | 68 | 1015.8 |
| 20260503030742 | 3 | 280 | 0.0 | 0.0 | 0.00 | 0.00 | 0.00 | 67 | 1015.8 |
| 20260503030239 | 3 | 280 | 0.0 | 0.0 | 0.00 | 0.00 | 0.00 | 67 | 1015.9 |
| 20260503025735 | 3 | 280 | 0.0 | 0.0 | 0.00 | 0.00 | 0.00 | 68 | 1015.8 |
| 20260503025233 | 3 | 280 | 0.0 | 0.0 | 0.00 | 0.00 | 0.00 | 68 | 1015.9 |
| 20260503024730 | 3 | 280 | 0.0 | 0.0 | 0.00 | 0.00 | 0.00 | 67 | 1016.1 |
| 20260503024227 | 3 | 280 | 0.0 | 0.0 | 0.00 | 0.00 | 0.00 | 68 | 1016.0 |
| 20260503023724 | 3 | 280 | 0.0 | 0.0 | 0.00 | 0.00 | 0.00 | 68 | 1015.9 |
| 20260503023220 | 3 | 280 | 0.0 | 0.0 | 0.00 | 0.00 | 0.00 | 68 | 1016.0 |
| 20260503022717 | 3 | 280 | 0.0 | 0.0 | 0.00 | 0.00 | 0.00 | 68 | 1016.0 |
| 20260503022216 | 3 | 280 | 0.0 | 0.0 | 0.00 | 0.00 | 0.00 | 68 | 1016.1 |
| 20260503021714 | 3 | 280 | 0.0 | 0.0 | 0.00 | 0.00 | 0.00 | 67 | 1016.1 |
| 20260503021210 | 3 | 280 | 0.0 | 0.0 | 0.00 | 0.00 | 0.00 | 67 | 1016.1 |
| 20260503020708 | 3 | 280 | 0.0 | 0.0 | 0.00 | 0.00 | 0.00 | 66 | 1016.1 |
| 20260503020205 | 3 | 280 | 0.0 | 0.0 | 0.00 | 0.00 | 0.00 | 65 | 1015.8 |
| 20260503015702 | 4 | 280 | 0.0 | 0.0 | 0.00 | 0.00 | 0.00 | 64 | 1015.8 |
| 20260503015159 | 4 | 280 | 0.0 | 0.0 | 0.00 | 0.00 | 0.00 | 64 | 1015.7 |
| 20260503014654 | 4 | 280 | 0.0 | 0.0 | 0.00 | 0.00 | 0.00 | 64 | 1015.7 |
| 20260503014152 | 3 | 280 | 0.0 | 0.0 | 0.00 | 0.00 | 0.00 | 65 | 1015.8 |
| 20260503013649 | 3 | 280 | 0.0 | 0.0 | 0.00 | 0.00 | 0.00 | 63 | 1015.7 |
| 20260503013147 | 4 | 280 | 0.0 | 0.0 | 0.00 | 0.00 | 0.00 | 62 | 1015.7 |
| 20260503012644 | 5 | 280 | 0.0 | 0.0 | 0.00 | 0.00 | 0.00 | 61 | 1015.8 |
| 20260503012141 | 5 | 280 | 0.0 | 0.0 | 0.00 | 0.00 | 0.00 | 60 | 1015.7 |
| 20260503011637 | 5 | 280 | 0.0 | 0.0 | 0.00 | 0.00 | 0.00 | 59 | 1015.6 |
| 20260503011134 | 5 | 280 | 0.0 | 0.0 | 0.00 | 0.00 | 0.00 | 58 | 1015.7 |
| 20260503010630 | 5 | 281 | 0.0 | 0.0 | 0.00 | 0.00 | 0.00 | 57 | 1015.7 |
| 20260503010128 | 6 | 281 | 0.0 | 0.0 | 0.00 | 0.00 | 0.00 | 56 | 1015.5 |
| 20260503005625 | 6 | 281 | 0.0 | 0.0 | 0.00 | 0.00 | 0.00 | 55 | 1015.5 |
| 20260503005122 | 6 | 280 | 0.0 | 0.0 | 0.00 | 0.00 | 0.00 | 54 | 1015.6 |
| 20260503004618 | 6 | 279 | 0.0 | 0.0 | 0.00 | 0.00 | 0.00 | 52 | 1015.4 |
| 20260503004117 | 7 | 279 | 0.0 | 0.0 | 0.00 | 0.00 | 0.00 | 51 | 1015.4 |
| 20260503003614 | 7 | 279 | 0.0 | 0.0 | 0.00 | 0.00 | 0.00 | 49 | 1015.6 |
| 20260503003110 | 7 | 280 | 0.0 | 0.0 | 0.00 | 0.00 | 0.00 | 49 | 1015.3 |
| 20260503002607 | 7 | 280 | 0.0 | 0.0 | 0.00 | 0.00 | 0.00 | 48 | 1015.4 |
| 20260503002104 | 8 | 283 | 0.0 | 0.0 | 0.00 | 0.00 | 0.00 | 47 | 1015.3 |
| 20260503001600 | 8 | 282 | 1.6 | 3.2 | 0.00 | 0.00 | 0.00 | 46 | 1015.3 |
| 20260503001058 | 8 | 300 | 6.4 | 8.0 | 0.00 | 0.00 | 0.00 | 45 | 1015.4 |
| 20260503000555 | 8 | 318 | 4.8 | 8.0 | 0.00 | 0.00 | 0.00 | 45 | 1015.2 |
| 20260503000052 | 8 | 286 | 4.8 | 4.8 | 0.00 | 0.00 | 0.00 | 46 | 1015.4 |
| 20260502235548 | 8 | 280 | 4.8 | 4.8 | 0.00 | 0.00 | 0.00 | 45 | 1015.3 |
| 20260502235046 | 8 | 278 | 1.6 | 1.6 | 0.00 | 0.00 | 0.00 | 46 | 1015.4 |
| 20260502234542 | 8 | 287 | 4.8 | 4.8 | 0.00 | 0.00 | 0.00 | 45 | 1015.3 |
| 20260502234040 | 8 | 335 | 4.8 | 8.0 | 0.00 | 0.00 | 0.00 | 45 | 1015.3 |
| 20260502233540 | 8 | 298 | 3.2 | 3.2 | 0.00 | 0.00 | 0.00 | 45 | 1015.3 |
| 20260502233037 | 8 | 333 | 6.4 | 8.0 | 0.00 | 0.00 | 0.00 | 45 | 1015.3 |
| 20260502232533 | 8 | 310 | 4.8 | 4.8 | 0.00 | 0.00 | 0.00 | 45 | 1015.4 |
| 20260502232031 | 8 | 287 | 4.8 | 4.8 | 0.00 | 0.00 | 0.00 | 45 | 1015.5 |
| 20260502231528 | 8 | 242 | 4.8 | 4.8 | 0.00 | 0.00 | 0.00 | 45 | 1015.5 |
| 20260502231026 | 8 | 315 | 3.2 | 4.8 | 0.00 | 0.00 | 0.00 | 45 | 1015.5 |
| 20260502230524 | 8 | 319 | 8.0 | 12.9 | 0.00 | 0.00 | 0.00 | 45 | 1015.5 |
| 20260502230022 | 8 | 304 | 3.2 | 4.8 | 0.00 | 0.00 | 0.00 | 45 | 1015.6 |
| 20260502225517 | 8 | 308 | 8.0 | 9.7 | 0.00 | 0.00 | 0.00 | 45 | 1015.5 |
| 20260502225014 | 8 | 329 | 8.0 | 9.7 | 0.00 | 0.00 | 0.00 | 44 | 1015.3 |
| 20260502224510 | 8 | 303 | 8.0 | 9.7 | 0.00 | 0.00 | 0.00 | 44 | 1015.5 |
| 20260502224008 | 8 | 280 | 4.8 | 4.8 | 0.00 | 0.00 | 0.00 | 43 | 1015.4 |
| 20260502223505 | 9 | 214 | 4.8 | 8.0 | 0.00 | 0.00 | 0.00 | 45 | 1015.4 |
| 20260502223004 | 9 | 328 | 8.0 | 9.7 | 0.00 | 0.00 | 0.00 | 45 | 1015.6 |
| 20260502222500 | 9 | 329 | 11.3 | 12.9 | 0.00 | 0.00 | 0.00 | 44 | 1015.6 |
| 20260502221956 | 8 | 325 | 4.8 | 4.8 | 0.00 | 0.00 | 0.00 | 45 | 1015.6 |
| 20260502221452 | 8 | 316 | 4.8 | 9.7 | 0.00 | 0.00 | 0.00 | 45 | 1015.4 |
| 20260502220950 | 8 | 282 | 1.6 | 3.2 | 0.00 | 0.00 | 0.00 | 45 | 1015.5 |
| 20260502220445 | 8 | 292 | 8.0 | 11.3 | 0.00 | 0.00 | 0.00 | 45 | 1015.3 |
| 20260502215942 | 8 | 326 | 1.6 | 3.2 | 0.00 | 0.00 | 0.00 | 46 | 1015.5 |
| 20260502215440 | 8 | 293 | 3.2 | 3.2 | 0.00 | 0.00 | 0.00 | 45 | 1015.5 |
| 20260502214936 | 8 | 328 | 8.0 | 9.7 | 0.00 | 0.00 | 0.00 | 44 | 1015.5 |
| 20260502214433 | 9 | 317 | 8.0 | 12.9 | 0.00 | 0.00 | 0.00 | 44 | 1015.6 |
| 20260502213931 | 9 | 305 | 8.0 | 11.3 | 0.00 | 0.00 | 0.00 | 45 | 1015.7 |
| 20260502213427 | 8 | 309 | 4.8 | 4.8 | 0.00 | 0.00 | 0.00 | 44 | 1015.6 |
| 20260502212926 | 8 | 293 | 3.2 | 3.2 | 0.00 | 0.00 | 0.00 | 45 | 1015.7 |
| 20260502212424 | 8 | 347 | 9.7 | 12.9 | 0.00 | 0.00 | 0.00 | 44 | 1015.7 |
| 20260502211921 | 8 | 313 | 3.2 | 3.2 | 0.00 | 0.00 | 0.00 | 44 | 1015.5 |
| 20260502211417 | 8 | 33 | 1.6 | 3.2 | 0.00 | 0.00 | 0.00 | 46 | 1015.6 |
| 20260502210914 | 8 | 293 | 4.8 | 4.8 | 0.00 | 0.00 | 0.00 | 44 | 1015.7 |
| 20260502210411 | 8 | 296 | 6.4 | 9.7 | 0.00 | 0.00 | 0.00 | 44 | 1015.7 |
| 20260502205908 | 8 | 289 | 4.8 | 4.8 | 0.00 | 0.00 | 0.00 | 44 | 1015.8 |
| 20260502205404 | 8 | 296 | 9.7 | 11.3 | 0.00 | 0.00 | 0.00 | 45 | 1015.6 |
| 20260502204902 | 8 | 353 | 4.8 | 8.0 | 0.00 | 0.00 | 0.00 | 44 | 1015.8 |
| 20260502204358 | 8 | 315 | 8.0 | 12.9 | 0.00 | 0.00 | 0.00 | 44 | 1015.7 |
| 20260502203856 | 8 | 249 | 3.2 | 4.8 | 0.00 | 0.00 | 0.00 | 45 | 1015.7 |
| 20260502203353 | 8 | 294 | 8.0 | 9.7 | 0.00 | 0.00 | 0.00 | 45 | 1015.8 |
| 20260502202849 | 8 | 319 | 14.5 | 16.1 | 0.00 | 0.00 | 0.00 | 44 | 1015.7 |
| 20260502202347 | 8 | 282 | 8.0 | 11.3 | 0.00 | 0.00 | 0.00 | 44 | 1015.9 |
| 20260502201844 | 8 | 315 | 4.8 | 4.8 | 0.00 | 0.00 | 0.00 | 43 | 1016.1 |
| 20260502201340 | 8 | 334 | 3.2 | 3.2 | 0.00 | 0.00 | 0.00 | 44 | 1015.8 |
| 20260502200837 | 8 | 303 | 4.8 | 8.0 | 0.00 | 0.00 | 0.00 | 43 | 1016.2 |
| 20260502200332 | 8 | 287 | 3.2 | 3.2 | 0.00 | 0.00 | 0.00 | 43 | 1016.0 |
| 20260502195831 | 8 | 326 | 4.8 | 8.0 | 0.00 | 0.00 | 0.00 | 44 | 1016.3 |
| 20260502195327 | 8 | 300 | 3.2 | 3.2 | 0.00 | 0.00 | 0.00 | 43 | 1016.3 |
| 20260502194824 | 8 | 272 | 3.2 | 3.2 | 0.00 | 0.00 | 0.00 | 45 | 1016.2 |
| 20260502194321 | 8 | 323 | 8.0 | 11.3 | 0.00 | 0.00 | 0.00 | 43 | 1016.1 |